[[{"header":{"parameterUnit":"m.s-1","parameterCategory":1,"la1":30.2991,"la2":30.254,"lo1":-89.0895,"lo2":-89.0444,"dy":0.0017,"dx":0.0017,"nx":28,"ny":28,"refTime":"2024-08-24T09:00:00:Z","depth":0,"parameterNumber":2,"parameterNumberName":"U-component_of_WINDS"},"data":[0,0,0,0,0,0,0,0,0,0,0,0,0,0,0,0,0,0,0,0,0,0,0,0,0,0,0,0,0,0,0,0,0,0,0,0,0,0,0,0,0,0,0,0,0,0,0,0,0,0,0,0,0,0,0,0,0,0,-5.4502,-5.4503,0,-5.4638,-5.464,-5.4642,-5.4487,-5.4481,-5.4475,-5.4469,-5.4614,-5.4623,-5.4633,0,0,0,0,0,0,0,0,0,0,0,0,0,-5.4112,-5.412,-5.4502,-5.4504,-5.4505,-5.4638,-5.464,-5.4642,-5.4488,-5.4481,-5.4473,-5.4467,-5.4611,-5.4622,-5.4633,0,0,0,0,0,0,0,0,0,0,0,0,0,-5.4268,-5.4122,-5.4502,-5.4444,-5.444,-5.4638,-5.464,-5.4642,-5.4489,-5.448,-5.4472,-5.4463,-5.4608,-5.4621,-5.4635,-5.4897,0,0,-5.4678,-5.4684,0,0,0,0,0,0,0,0,-5.426,-5.4283,-5.4451,-5.4449,-5.4445,-5.4536,-5.4555,-5.4728,-5.4491,-5.4471,-5.4469,-5.4459,-5.4596,-5.461,-5.4655,-5.4904,-5.491,-5.4679,-5.4687,-5.4693,-5.4697,0,0,0,0,0,0,0,-5.4249,-5.4276,-5.4556,-5.4454,-5.445,-5.4413,-5.4426,-5.4587,-5.4581,-5.4472,-5.4461,-5.4479,-5.4592,-5.4642,-5.4658,-5.4912,-5.4679,-5.4691,-5.47,-5.4705,-5.5384,-5.5393,0,0,0,0,0,0,-5.4244,-5.4268,-5.4552,-5.456,-5.4328,-5.4427,-5.4441,-5.4516,-5.4579,-5.458,-5.4486,-5.4471,-5.4623,-5.4641,-5.4662,-5.4974,-5.4693,-5.4706,-5.4714,-5.5374,-5.5386,-5.5396,0,0,0,0,0,0,-5.4236,-5.4271,-5.4546,-5.4411,-5.4443,-5.4443,-5.4529,-5.4523,-5.4573,-5.459,-5.4588,-5.4538,-5.4616,-5.4642,-5.484,-5.4977,-5.4713,-5.4725,-5.5363,-5.5378,-5.5391,-5.56,0,0,0,0,0,0,-5.4226,-5.4269,-5.4368,-5.4415,-5.4451,-5.4721,-5.4537,-5.4532,-5.4597,-5.4578,-5.4638,-5.4639,-5.4612,-5.482,-5.4854,-5.4991,-5.4736,-5.5351,-5.5369,-5.5386,-5.5581,-5.562,-5.5653,0,0,0,0,0,-5.4212,-5.4422,-5.4373,-5.4408,-5.4574,-5.4729,-5.475,-5.4712,-5.4608,-5.4708,-5.4719,-5.4638,-5.4956,-5.4841,-5.4878,-5.5022,-5.5342,-5.5364,-5.5385,-5.5565,-5.5612,-5.5652,0,0,0,0,0,0,-5.4393,-5.4427,-5.4374,-5.4604,-5.4665,-5.4702,-5.4827,-5.4764,-5.4856,-5.4835,-5.4786,-5.4801,-5.5011,-5.5036,-5.4907,-5.528,-5.5132,-5.5162,-5.5256,-5.5301,-5.5337,-5.5327,-5.4748,0,0,0,0,0,-5.4459,-5.458,-5.4604,-5.4805,-5.4838,-5.4828,-5.4894,-5.4859,-5.4921,-5.4946,-5.4971,-5.5036,-5.515,-5.5226,-5.5333,-5.5583,-5.5595,-5.57,-5.5736,-5.5766,-5.5793,-5.5929,-5.5977,-5.5468,-5.5467,-5.5467,0,0,-5.4598,-5.4631,-5.4711,-5.4842,-5.4885,-5.5014,-5.4851,-5.4993,-5.5089,-5.4968,-5.5156,-5.5177,-5.5245,-5.5471,-5.5571,-5.5498,-5.5936,-5.5794,-5.5817,-5.5829,-5.5956,-5.6005,-5.6048,-5.5482,-5.548,-5.5477,0,0,-5.4916,-5.4953,-5.5125,-5.5172,-5.5238,-5.523,-5.5271,-5.5319,-5.5328,-5.5515,-5.5428,-5.5541,-5.5739,-5.5791,-5.5844,-5.6183,-5.6112,-5.6219,-5.6409,-5.6542,-5.6582,-5.6617,-5.674,-5.6784,-5.6246,-5.6246,-5.6247,0,-5.5081,-5.527,-5.5222,-5.5372,-5.5433,-5.5328,-5.5503,-5.555,-5.5649,-5.5694,-5.561,-5.5856,-5.5895,-5.6132,-5.6214,-5.626,-5.6307,-5.6213,-5.6579,-5.6615,-5.6647,-5.6764,-5.681,-5.6259,-5.6258,-5.6256,-5.6255,0,-5.547,-5.5602,-5.5733,-5.583,-5.5905,-5.6067,-5.6046,-5.6128,-5.6087,-5.6088,-5.6281,-5.6323,-5.6437,-5.649,-5.6452,-5.6723,-5.6675,-5.6587,-5.6438,-5.6709,-5.6818,-5.6862,-5.6277,-5.6273,-5.6269,-5.6266,0,0,-5.5907,-5.5975,-5.6024,-5.6067,-5.6133,-5.6235,-5.6392,-5.6501,-5.6574,-5.6645,-5.6777,-5.6947,-5.6865,-5.6925,-5.6892,-5.7008,-5.7277,-5.6905,-5.6906,-5.6974,-5.7579,-5.7647,-5.77,-5.7229,-5.7237,-5.7244,-5.7574,0,-5.6228,-5.6499,-5.6462,-5.6723,-5.6846,-5.6748,-5.6885,-5.6941,-5.6946,-5.7052,-5.7058,-5.718,-5.7062,-5.7098,-5.7208,-5.7221,-5.7398,-5.7196,-5.7354,-5.736,-5.7341,-5.7756,-5.7828,-5.8138,-5.7616,-5.7623,-5.7629,0,-5.6639,-5.6725,-5.6998,-5.7045,-5.7095,-5.7219,-5.7317,-5.7418,-5.748,-5.7476,-5.7544,-5.7489,-5.7649,-5.7495,-5.7715,-5.7579,-5.7641,-5.7657,-5.7668,-5.7683,-5.7512,-5.7784,-5.8236,-5.8283,-5.7695,-5.7689,-5.7685,0,-5.6933,-5.7117,-5.7304,-5.7343,-5.7403,-5.7492,-5.7521,-5.7574,-5.7643,-5.7728,-5.7773,-5.7877,-5.7934,-5.8017,-5.7993,-5.7883,-5.8219,-5.8063,-5.8222,-5.8223,-5.8299,-5.8295,-5.8769,-5.8336,-5.8335,-5.8334,-5.8333,0,-5.7297,-5.7469,-5.7437,-5.7553,-5.7743,-5.7698,-5.7887,-5.7904,-5.7953,-5.8071,-5.7993,-5.8106,-5.8066,-5.8178,-5.8161,-5.8346,-5.8373,-5.8375,-5.8369,-5.8384,-5.8384,-5.8425,-5.8404,-5.8347,-5.8344,-5.8342,-5.8339,0,-5.7658,-5.7644,-5.7842,-5.7881,-5.7895,-5.8034,-5.8068,-5.8177,-5.8176,-5.8327,-5.836,-5.8359,-5.8486,-5.847,-5.8612,-5.86,-5.8832,-5.8799,-5.8811,-5.8804,-5.8965,-5.8951,-5.9484,-5.9552,-5.9074,-5.9078,-5.9082,0,-5.7892,-5.8022,-5.8075,-5.8148,-5.8183,-5.8302,-5.8371,-5.8332,-5.8408,-5.8488,-5.8589,-5.8708,-5.8802,-5.9011,-5.9024,-5.9133,-5.9103,-5.9282,-5.9119,-5.913,-5.9108,-5.9101,-5.9115,-5.9315,-5.932,-5.9325,-5.9328,0,-5.831,-5.8296,-5.8398,-5.8498,-5.8583,-5.866,-5.873,-5.8794,-5.8762,-5.8851,-5.898,-5.9052,-5.9197,-5.9318,-5.9421,-5.9452,-5.9387,-5.9379,-5.9422,-5.9439,-5.9442,-5.9445,-5.8901,-5.9368,-5.9364,-5.9361,-5.9359,-5.9357,-5.8616,-5.8727,-5.8782,-5.8898,-5.8946,-5.9013,-5.9118,-5.9129,-5.9235,-5.9349,-5.932,-5.9466,-5.9525,-5.9656,-5.9698,-5.9813,-5.9748,-5.9809,-5.9825,-5.9842,-5.9861,-5.9422,-5.9831,-5.983,-5.9829,-5.9828,-5.9827,0,-5.9031,-5.9061,-5.9168,-5.9268,-5.936,-5.9287,-5.9361,-5.9443,-5.9572,-5.9632,-5.9726,-5.9875,-5.9991,-6.0013,-6.0125,-6.0213,-6.0186,-6.0244,-6.0238,-6.0247,-5.9912,-5.9865,-6.0264,-6.0264,-6.0264,-6.0264,-6.0264,-6.0264,-5.9257,-5.9442,-5.9435,-5.9643,-5.9672,-5.9813,-5.9862,-5.9924,-5.9971,-6.014,-6.0236,-6.0249,-6.0295,-6.0409,-6.0514,-6.0517,-6.0563,-6.0633,-6.0626,-6.0314,-6.027,-6.0229,-6.0184,-6.0643,-6.0644,-6.0951,-6.0953,-6.0956]},{"header":{"parameterUnit":"m.s-1","parameterCategory":1,"la1":30.2991,"la2":30.254,"lo1":-89.0895,"lo2":-89.0444,"dy":0.0017,"dx":0.0017,"nx":28,"ny":28,"refTime":"2024-08-24T09:00:00:Z","depth":0,"parameterNumber":3,"parameterNumberName":"V-component_of_WINDS"},"data":[0,0,0,0,0,0,0,0,0,0,0,0,0,0,0,0,0,0,0,0,0,0,0,0,0,0,0,0,0,0,0,0,0,0,0,0,0,0,0,0,0,0,0,0,0,0,0,0,0,0,0,0,0,0,0,0,0,0,-3.5294,-3.5294,0,-3.5267,-3.5267,-3.5266,-3.5212,-3.5211,-3.521,-3.5209,-3.518,-3.5181,-3.5181,0,0,0,0,0,0,0,0,0,0,0,0,0,-3.5297,-3.5297,-3.5294,-3.5294,-3.5293,-3.5267,-3.5266,-3.5266,-3.5212,-3.5211,-3.5209,-3.5208,-3.518,-3.5181,-3.5181,0,0,0,0,0,0,0,0,0,0,0,0,0,-3.5285,-3.5297,-3.5294,-3.5263,-3.526,-3.5267,-3.5266,-3.5266,-3.5212,-3.5211,-3.5209,-3.5208,-3.518,-3.5181,-3.5181,-3.5216,0,0,-3.5182,-3.5182,0,0,0,0,0,0,0,0,-3.5286,-3.5285,-3.5268,-3.5265,-3.5262,-3.5241,-3.5257,-3.5249,-3.5213,-3.5231,-3.5209,-3.5207,-3.5202,-3.52,-3.5199,-3.5214,-3.5213,-3.5182,-3.5182,-3.5183,-3.5183,0,0,0,0,0,0,0,-3.5287,-3.5286,-3.5283,-3.5268,-3.5264,-3.525,-3.5247,-3.5255,-3.5226,-3.5229,-3.5225,-3.5222,-3.52,-3.5199,-3.5198,-3.5213,-3.5182,-3.5183,-3.5183,-3.5183,-3.5252,-3.5253,0,0,0,0,0,0,-3.5293,-3.5287,-3.5284,-3.5282,-3.527,-3.5251,-3.5247,-3.5249,-3.5225,-3.522,-3.5224,-3.522,-3.5199,-3.5197,-3.5197,-3.5233,-3.5183,-3.5183,-3.5183,-3.525,-3.5252,-3.5254,0,0,0,0,0,0,-3.5293,-3.5293,-3.5285,-3.5284,-3.5282,-3.5253,-3.5256,-3.525,-3.5248,-3.5221,-3.5216,-3.5228,-3.5197,-3.5196,-3.5211,-3.5231,-3.5183,-3.5183,-3.5248,-3.5251,-3.5253,-3.5308,0,0,0,0,0,0,-3.5293,-3.5293,-3.5307,-3.5284,-3.5282,-3.53,-3.5257,-3.525,-3.5249,-3.5244,-3.5224,-3.5219,-3.5196,-3.521,-3.5211,-3.5231,-3.5184,-3.5246,-3.5249,-3.5252,-3.5304,-3.5312,-3.5318,0,0,0,0,0,-3.5293,-3.5324,-3.5308,-3.5308,-3.5298,-3.5302,-3.53,-3.5273,-3.5251,-3.5264,-3.5246,-3.522,-3.5229,-3.5212,-3.5212,-3.5233,-3.5245,-3.5248,-3.5252,-3.5301,-3.531,-3.5318,0,0,0,0,0,0,-3.535,-3.532,-3.5302,-3.5326,-3.5317,-3.5293,-3.5308,-3.5285,-3.5281,-3.5277,-3.5243,-3.5239,-3.5257,-3.5247,-3.5228,-3.5263,-3.5233,-3.5236,-3.527,-3.5278,-3.5286,-3.5287,-3.5184,0,0,0,0,0,-3.5365,-3.5371,-3.5345,-3.5369,-3.5365,-3.5337,-3.5338,-3.5318,-3.5306,-3.5302,-3.5286,-3.5276,-3.5276,-3.5277,-3.5276,-3.5302,-3.5296,-3.5316,-3.5324,-3.533,-3.5333,-3.5343,-3.5352,-3.5266,-3.5265,-3.5265,0,0,-3.5397,-3.5381,-3.5387,-3.5379,-3.537,-3.5375,-3.5334,-3.5343,-3.5346,-3.5303,-3.5315,-3.5303,-3.5289,-3.5309,-3.5317,-3.5301,-3.5355,-3.5334,-3.534,-3.5339,-3.5348,-3.5356,-3.5363,-3.5268,-3.5268,-3.5267,0,0,-3.5456,-3.5446,-3.5464,-3.5454,-3.544,-3.5421,-3.5425,-3.5404,-3.5394,-3.5405,-3.5373,-3.5376,-3.5378,-3.5369,-3.5364,-3.5418,-3.5393,-3.5419,-3.5456,-3.5467,-3.5474,-3.548,-3.5496,-3.5503,-3.5423,-3.5423,-3.5423,0,-3.5497,-3.5505,-3.5476,-3.5485,-3.5482,-3.5443,-3.5459,-3.5452,-3.5438,-3.5436,-3.5418,-3.5418,-3.5406,-3.5422,-3.5435,-3.5434,-3.5436,-3.5421,-3.5475,-3.5481,-3.5486,-3.5501,-3.5508,-3.5426,-3.5426,-3.5425,-3.5425,0,-3.5554,-3.556,-3.5576,-3.5562,-3.5561,-3.5574,-3.5546,-3.5547,-3.5527,-3.551,-3.5521,-3.5505,-3.5499,-3.5502,-3.5483,-3.5514,-3.5504,-3.5482,-3.5449,-3.5497,-3.5511,-3.5518,-3.543,-3.5429,-3.5428,-3.5428,0,0,-3.5649,-3.5618,-3.5624,-3.5616,-3.5597,-3.56,-3.5611,-3.5604,-3.5605,-3.5597,-3.5603,-3.5605,-3.5583,-3.5578,-3.5557,-3.5567,-3.5607,-3.5542,-3.5542,-3.5553,-3.5638,-3.5654,-3.5662,-3.5591,-3.5592,-3.5593,-3.5639,0,-3.5703,-3.5719,-3.5692,-3.5714,-3.5717,-3.568,-3.5689,-3.5677,-3.5661,-3.5661,-3.5643,-3.5643,-3.5616,-3.5612,-3.562,-3.5601,-3.5624,-3.5598,-3.5595,-3.5595,-3.5598,-3.5669,-3.5687,-3.5731,-3.5644,-3.5645,-3.5646,0,-3.5768,-3.5761,-3.5783,-3.576,-3.576,-3.5769,-3.5759,-3.576,-3.5746,-3.5733,-3.5726,-3.5701,-3.5708,-3.5679,-3.5687,-3.5669,-3.5667,-3.5657,-3.5658,-3.5656,-3.5622,-3.5667,-3.5744,-3.575,-3.5655,-3.5654,-3.5653,0,-3.5831,-3.5828,-3.584,-3.5835,-3.5809,-3.5815,-3.5805,-3.5788,-3.5785,-3.5777,-3.5775,-3.5768,-3.5764,-3.5758,-3.5731,-3.5713,-3.5742,-3.5711,-3.573,-3.5731,-3.5737,-3.5737,-3.5813,-3.5739,-3.5739,-3.5739,-3.5739,0,-3.5893,-3.5908,-3.5868,-3.5876,-3.589,-3.5859,-3.5873,-3.5859,-3.5844,-3.5847,-3.5815,-3.5818,-3.5783,-3.5782,-3.5761,-3.577,-3.5769,-3.5758,-3.5751,-3.5759,-3.576,-3.5756,-3.5751,-3.574,-3.574,-3.574,-3.5739,0,-3.5966,-3.5941,-3.5951,-3.5925,-3.5919,-3.593,-3.5907,-3.5912,-3.5893,-3.5897,-3.5896,-3.5867,-3.5864,-3.5837,-3.5828,-3.5814,-3.5829,-3.5819,-3.5834,-3.583,-3.585,-3.5848,-3.5925,-3.5932,-3.5856,-3.5856,-3.5857,0,-3.6007,-3.6016,-3.5991,-3.599,-3.5981,-3.5981,-3.5977,-3.5946,-3.5944,-3.5926,-3.5933,-3.5927,-3.5921,-3.5917,-3.5895,-3.5887,-3.5874,-3.5902,-3.5873,-3.588,-3.5872,-3.5871,-3.587,-3.5908,-3.5909,-3.5909,-3.591,0,-3.608,-3.6066,-3.6062,-3.6053,-3.605,-3.6042,-3.6032,-3.6033,-3.5998,-3.5997,-3.5993,-3.5988,-3.5978,-3.5972,-3.596,-3.5948,-3.5923,-3.5919,-3.5923,-3.593,-3.5938,-3.5932,-3.5849,-3.5917,-3.5917,-3.5916,-3.5916,-3.5915,-3.6136,-3.6142,-3.6124,-3.612,-3.6109,-3.61,-3.6102,-3.6083,-3.608,-3.6069,-3.6051,-3.6049,-3.6032,-3.6013,-3.6003,-3.6,-3.5986,-3.5992,-3.5993,-3.5994,-3.5997,-3.594,-3.5998,-3.5998,-3.5998,-3.5998,-3.5997,0,-3.6205,-3.6191,-3.6188,-3.6174,-3.6171,-3.6147,-3.6134,-3.6133,-3.6131,-3.6118,-3.6111,-3.6106,-3.6099,-3.6076,-3.6066,-3.6068,-3.6056,-3.6067,-3.6065,-3.6062,-3.6012,-3.6009,-3.6076,-3.6076,-3.6076,-3.6076,-3.6076,-3.6076,-3.624,-3.6248,-3.6233,-3.6234,-3.622,-3.6218,-3.6212,-3.6203,-3.6191,-3.6186,-3.618,-3.6165,-3.6146,-3.6135,-3.6127,-3.612,-3.6117,-3.6131,-3.6121,-3.6074,-3.6066,-3.6059,-3.6055,-3.6132,-3.6132,-3.617,-3.6171,-3.6171]}]]